GW7052 Weather Reports


time (UTC)temp
F
wind
direction
speed
knots
gust
knots
rain 1hr
in
rain 24hr
in
rain mn
in
humidity
%
barometer
mb
20260507120529 53 35 0.0 0.0 0.00 0.00 0.00 74 1022.0
20260507120026 53 35 0.0 0.0 0.00 0.00 0.00 74 1022.0
20260507115522 53 35 0.0 0.0 0.00 0.00 0.00 74 1021.9
20260507115018 53 35 0.0 0.0 0.00 0.00 0.00 74 1022.1
20260507114514 53 35 0.0 0.0 0.00 0.00 0.00 73 1022.1
20260507114012 53 35 0.9 0.9 0.00 0.00 0.00 73 1022.2
20260507113509 53 35 0.9 0.9 0.00 0.00 0.00 72 1022.1
20260507113006 53 35 0.0 0.9 0.00 0.00 0.00 73 1022.3
20260507112503 53 35 0.9 0.9 0.00 0.00 0.00 73 1022.4
20260507112000 53 35 0.0 0.0 0.00 0.00 0.00 74 1022.2
20260507111457 53 35 0.9 0.9 0.00 0.00 0.00 73 1022.2
20260507110953 53 35 0.9 0.9 0.00 0.00 0.00 72 1022.2
20260507110450 53 35 0.9 0.9 0.00 0.00 0.00 72 1022.2
20260507105946 53 35 0.9 2.6 0.00 0.00 0.00 72 1022.2
20260507105443 54 36 0.9 1.7 0.00 0.00 0.00 72 1022.3
20260507104940 54 36 0.9 0.9 0.00 0.00 0.00 72 1022.2
20260507104437 54 36 0.9 0.9 0.00 0.00 0.00 72 1022.3
20260507103932 54 36 0.9 0.9 0.00 0.00 0.00 71 1022.4
20260507103430 54 36 0.0 0.9 0.00 0.00 0.00 72 1022.4
20260507102925 54 36 0.0 0.9 0.00 0.00 0.00 72 1022.3
20260507102423 54 37 0.0 0.0 0.00 0.00 0.00 71 1022.3
20260507101919 54 36 0.9 1.7 0.00 0.00 0.00 72 1022.4
20260507101414 54 36 1.7 1.7 0.00 0.00 0.00 72 1022.5
20260507100911 54 37 0.0 0.0 0.00 0.00 0.00 73 1022.6
20260507100409 54 37 0.0 0.0 0.00 0.00 0.00 74 1022.4
20260507095907 54 37 0.0 0.0 0.00 0.00 0.00 76 1022.5
20260507095403 54 38 0.0 0.9 0.00 0.00 0.00 74 1022.3
20260507094900 54 37 0.0 0.0 0.00 0.00 0.00 74 1022.4
20260507094357 54 37 0.0 0.9 0.00 0.00 0.00 75 1022.6
20260507093854 54 37 0.0 0.0 0.00 0.00 0.00 75 1022.7
20260507093352 54 37 0.0 0.0 0.00 0.00 0.00 76 1022.6
20260507092850 54 37 0.0 0.0 0.00 0.00 0.00 76 1022.8
20260507092346 54 37 0.0 0.0 0.00 0.00 0.00 76 1022.7
20260507091842 55 37 0.0 0.0 0.00 0.00 0.00 76 1022.7
20260507091339 55 37 0.0 0.9 0.00 0.00 0.00 75 1022.9
20260507090834 55 37 0.0 0.0 0.00 0.00 0.00 75 1023.1
20260507090331 55 37 0.0 0.0 0.00 0.00 0.00 76 1022.9
20260507085828 55 38 0.0 0.0 0.00 0.00 0.00 75 1023.1
20260507085325 55 37 0.0 0.0 0.00 0.00 0.00 75 1023.0
20260507084822 55 37 0.0 0.0 0.00 0.00 0.00 74 1023.0
20260507084319 55 37 0.0 0.0 0.00 0.00 0.00 74 1022.7
20260507083816 55 37 0.0 0.9 0.00 0.00 0.00 73 1022.9
20260507083313 55 37 0.0 0.0 0.00 0.00 0.00 75 1023.0
20260507082809 55 37 0.0 0.0 0.00 0.00 0.00 75 1022.9
20260507082306 55 37 0.0 0.0 0.00 0.00 0.00 75 1022.9
20260507081802 55 37 0.0 0.0 0.00 0.00 0.00 74 1022.9
20260507081257 55 38 0.0 0.0 0.00 0.00 0.00 74 1022.8
20260507080754 55 38 0.0 0.9 0.00 0.00 0.00 74 1023.1
20260507080251 55 37 0.0 0.0 0.00 0.00 0.00 73 1022.8
20260507075746 55 38 0.0 0.0 0.00 0.00 0.00 73 1023.0
20260507075242 55 38 0.0 0.0 0.00 0.00 0.00 73 1023.0
20260507074738 55 38 0.0 0.0 0.00 0.00 0.00 73 1023.0
20260507074237 55 38 0.0 0.9 0.00 0.00 0.00 73 1022.9
20260507073733 55 38 0.9 0.9 0.00 0.00 0.00 73 1023.0
20260507073230 55 38 0.0 0.0 0.00 0.00 0.00 73 1022.9
20260507072728 55 38 0.0 0.0 0.00 0.00 0.00 74 1022.9
20260507072225 55 38 0.0 0.0 0.00 0.00 0.00 74 1022.9
20260507071722 55 38 0.9 0.9 0.00 0.00 0.00 74 1022.9
20260507071219 55 38 0.0 0.0 0.00 0.00 0.00 74 1022.7
20260507070716 55 36 0.9 0.9 0.00 0.00 0.00 74 1022.6
20260507070213 55 35 0.9 0.9 0.00 0.00 0.00 74 1022.5
20260507065709 55 38 0.9 1.7 0.00 0.00 0.00 74 1022.8
20260507065206 55 9 1.7 3.5 0.00 0.00 0.00 74 1023.0
20260507064703 55 330 0.9 5.2 0.00 0.00 0.00 74 1022.8
20260507064202 55 69 2.6 2.6 0.00 0.00 0.00 75 1022.7
20260507063659 55 0 3.5 3.5 0.00 0.00 0.00 75 1022.6
20260507063155 55 62 2.6 2.6 0.00 0.00 0.00 76 1022.6
20260507062652 55 33 0.9 1.7 0.00 0.00 0.00 76 1022.6
20260507062150 55 34 1.7 3.5 0.00 0.00 0.00 76 1022.8
20260507061648 55 38 0.9 2.6 0.00 0.00 0.00 76 1022.6
20260507061146 55 61 0.9 1.7 0.00 0.00 0.00 76 1022.7
20260507060643 55 348 1.7 2.6 0.00 0.00 0.00 76 1022.8
20260507060140 55 329 0.9 1.7 0.00 0.00 0.00 76 1023.1
20260507055635 55 28 0.9 5.2 0.00 0.00 0.00 76 1022.9
20260507055131 55 27 1.7 5.2 0.00 0.00 0.00 76 1022.8
20260507054627 56 345 1.7 1.7 0.00 0.00 0.00 76 1022.8
20260507054125 56 45 1.7 5.2 0.00 0.00 0.00 76 1022.9
20260507053623 56 1 0.9 1.7 0.00 0.00 0.00 76 1022.7
20260507053121 56 44 2.6 2.6 0.00 0.00 0.00 76 1023.0
20260507052618 56 52 0.9 3.5 0.00 0.00 0.00 76 1022.7
20260507052115 56 12 1.7 2.6 0.00 0.00 0.00 75 1022.8
20260507051612 56 53 0.9 2.6 0.00 0.00 0.00 75 1022.6
20260507051109 56 320 0.9 1.7 0.00 0.00 0.00 75 1022.7
20260507050606 56 28 1.7 5.2 0.00 0.00 0.00 75 1022.7
20260507045559 57 58 0.9 3.5 0.00 0.00 0.00 75 1022.8
20260507045056 57 26 0.9 1.7 0.00 0.00 0.00 74 1022.7
20260507044553 57 21 3.5 6.1 0.00 0.00 0.00 74 1022.8
20260507044050 57 49 2.6 7.0 0.00 0.00 0.00 74 1022.7
20260507043545 57 3 1.7 5.2 0.00 0.00 0.00 74 1022.7
20260507043043 57 41 0.9 3.5 0.00 0.00 0.00 73 1022.7
20260507042539 57 358 2.6 3.5 0.00 0.00 0.00 73 1022.5
20260507042034 57 1 0.0 0.0 0.00 0.00 0.00 73 1022.6
20260507041532 58 298 0.9 2.6 0.00 0.00 0.00 73 1022.4
20260507041028 58 23 2.6 6.1 0.00 0.00 0.00 73 1022.6
20260507040525 58 28 3.5 3.5 0.00 0.00 0.00 73 1022.4
20260507040021 58 6 1.7 1.7 0.00 0.00 0.00 73 1022.3
20260507035517 58 18 3.5 3.5 0.00 0.00 0.00 73 1022.3
20260507035014 59 170 1.7 1.7 0.00 0.00 0.00 73 1022.2
20260507034511 59 72 0.9 2.6 0.00 0.00 0.00 73 1022.1
20260507034009 59 40 2.6 5.2 0.00 0.00 0.00 73 1022.0
20260507033506 59 48 0.9 3.5 0.00 0.00 0.00 73 1021.7
20260507033004 59 30 2.6 2.6 0.00 0.00 0.00 74 1021.8
20260507032500 59 25 0.9 2.6 0.00 0.00 0.00 74 1021.7
20260507031956 59 42 1.7 2.6 0.00 0.00 0.00 74 1021.6
20260507031453 59 52 1.7 1.7 0.00 0.00 0.00 74 1021.8
20260507030950 59 61 0.0 0.0 0.00 0.00 0.00 75 1021.5
20260507030447 59 61 0.0 0.0 0.00 0.00 0.00 74 1021.3
20260507025944 59 64 1.7 1.7 0.00 0.00 0.00 74 1021.5
20260507025441 59 30 0.0 0.0 0.00 0.00 0.00 74 1021.5
20260507024939 60 30 0.9 0.9 0.00 0.00 0.00 73 1021.4
20260507024436 60 29 1.7 3.5 0.00 0.00 0.00 73 1021.4
20260507023932 60 14 1.7 5.2 0.00 0.00 0.00 72 1021.2
20260507023429 60 18 0.0 2.6 0.00 0.00 0.00 72 1021.2
20260507022926 60 33 1.7 3.5 0.00 0.00 0.00 71 1021.2
20260507022423 61 65 1.7 5.2 0.00 0.00 0.00 70 1021.1
20260507021919 61 53 0.9 1.7 0.00 0.00 0.00 70 1021.2
20260507021414 61 8 3.5 5.2 0.00 0.00 0.00 69 1021.4
20260507020912 62 153 1.7 3.5 0.00 0.00 0.00 69 1021.1
20260507020408 62 325 3.5 6.1 0.00 0.00 0.00 68 1021.2
20260507015905 62 10 0.9 2.6 0.00 0.00 0.00 68 1021.3
20260507015403 62 62 1.7 2.6 0.00 0.00 0.00 67 1021.3
20260507014900 62 23 3.5 5.2 0.00 0.00 0.00 67 1021.2
20260507014356 63 341 1.7 5.2 0.00 0.00 0.00 66 1021.3
20260507013853 63 21 1.7 6.1 0.00 0.00 0.00 67 1021.4
20260507013350 63 59 3.5 8.7 0.00 0.00 0.00 66 1021.2
20260507012848 64 312 3.5 7.0 0.00 0.00 0.00 66 1021.1
20260507012343 64 4 0.9 2.6 0.00 0.00 0.00 66 1021.2
20260507011841 64 354 3.5 5.2 0.00 0.00 0.00 66 1021.1
20260507011338 64 11 6.1 7.0 0.00 0.00 0.00 65 1021.1
20260507010837 65 38 1.7 6.1 0.00 0.00 0.00 66 1021.1
20260507010333 65 340 3.5 6.1 0.00 0.00 0.00 66 1021.2
20260507005831 65 328 2.6 3.5 0.00 0.00 0.00 66 1021.1
20260507005327 65 19 3.5 7.8 0.00 0.00 0.00 66 1021.2
20260507004824 65 305 1.7 5.2 0.00 0.00 0.00 66 1021.2
20260507004321 66 53 6.1 7.0 0.00 0.00 0.00 65 1021.3
20260507003818 66 356 0.9 2.6 0.00 0.00 0.00 66 1021.1
20260507003314 66 19 3.5 5.2 0.00 0.00 0.00 66 1021.0
20260507002809 66 9 3.5 5.2 0.00 0.00 0.00 65 1020.9
20260507002306 67 1 3.5 6.1 0.00 0.00 0.00 64 1021.0
20260507001803 67 21 0.9 1.7 0.00 0.00 0.00 62 1021.0
20260507001300 68 46 0.9 2.6 0.00 0.00 0.00 61 1020.9
20260507000756 68 17 0.0 2.6 0.00 0.00 0.00 62 1021.0
20260507000252 68 10 1.7 2.6 0.00 0.00 0.00 62 1021.0
20260506235749 68 345 0.9 1.7 0.00 0.00 0.00 62 1020.8
20260506235244 69 9 1.7 3.5 0.00 0.00 0.00 60 1021.1
20260506234742 69 103 2.6 2.6 0.00 0.00 0.00 60 1021.1
20260506234238 69 140 0.0 0.0 0.00 0.00 0.00 58 1021.0
20260506233736 69 139 0.9 1.7 0.00 0.00 0.00 58 1020.9
20260506233232 70 163 0.9 0.9 0.00 0.00 0.00 59 1020.8
20260506232729 70 163 0.0 0.9 0.00 0.00 0.00 58 1020.7
20260506232224 70 162 0.9 0.9 0.00 0.00 0.00 58 1021.1
20260506231721 69 159 1.7 1.7 0.00 0.00 0.00 60 1021.2
20260506231220 68 135 0.9 0.9 0.00 0.00 0.00 61 1021.1
20260506230716 68 132 0.9 0.9 0.00 0.00 0.00 60 1021.3
20260506230213 70 112 2.6 2.6 0.00 0.00 0.00 57 1021.3
20260506225710 70 201 0.0 0.9 0.00 0.00 0.00 60 1021.3
20260506225206 70 201 0.9 0.9 0.00 0.00 0.00 58 1021.4
20260506224703 69 206 0.0 0.9 0.00 0.00 0.00 59 1021.5
20260506224200 69 209 0.9 1.7 0.00 0.00 0.00 59 1021.5
20260506223656 70 164 1.7 1.7 0.00 0.00 0.00 58 1021.6
20260506223152 71 173 0.9 0.9 0.00 0.00 0.00 55 1021.4
20260506222649 72 193 1.7 0.9 0.00 0.00 0.00 54 1021.5
20260506222145 72 212 0.9 1.7 0.00 0.00 0.00 54 1021.6
20260506221643 71 198 1.7 1.7 0.00 0.00 0.00 57 1021.6
20260506221141 69 211 1.7 2.6 0.00 0.00 0.00 58 1021.7
20260506220637 69 201 1.7 0.9 0.00 0.00 0.00 58 1021.7
20260506220132 68 218 1.7 5.2 0.00 0.00 0.00 59 1021.7
20260506215629 70 310 3.5 3.5 0.00 0.00 0.00 56 1021.6
20260506215125 72 170 0.0 2.6 0.00 0.00 0.00 53 1021.6
20260506214622 71 205 1.7 1.7 0.00 0.00 0.00 56 1021.6
20260506214119 70 207 1.7 2.6 0.00 0.00 0.00 58 1021.5
20260506213618 69 179 1.7 1.7 0.00 0.00 0.00 59 1021.5
20260506213114 67 178 1.7 0.9 0.00 0.00 0.00 63 1021.7
20260506212612 67 177 0.9 0.9 0.00 0.00 0.00 63 1021.8
20260506212106 67 177 0.0 0.0 0.00 0.00 0.00 63 1021.9
20260506211602 68 177 0.9 0.9 0.00 0.00 0.00 61 1022.0
20260506211100 69 177 0.9 1.7 0.00 0.00 0.00 61 1022.0
20260506210556 67 187 1.7 1.7 0.00 0.00 0.00 63 1022.1
20260506210053 67 188 1.7 1.7 0.00 0.00 0.00 63 1022.2
20260506205549 67 186 0.0 0.9 0.00 0.00 0.00 64 1022.1
20260506205044 67 186 0.0 0.9 0.00 0.00 0.00 64 1022.1
20260506204543 67 186 0.0 0.9 0.00 0.00 0.00 62 1021.9
20260506204039 67 192 0.9 0.9 0.00 0.00 0.00 64 1021.9
20260506203538 68 190 0.9 0.9 0.00 0.00 0.00 63 1022.0
20260506203034 68 190 0.0 0.9 0.00 0.00 0.00 63 1022.1
20260506202531 68 213 0.9 0.9 0.00 0.00 0.00 63 1022.0
20260506202027 68 214 0.0 1.7 0.00 0.00 0.00 61 1022.0
20260506201526 67 200 0.9 0.9 0.00 0.00 0.00 64 1022.1
20260506201022 66 179 0.9 0.9 0.00 0.00 0.00 66 1022.2
20260506200518 66 179 1.7 1.7 0.00 0.00 0.00 64 1022.3
20260506200015 66 189 0.0 0.9 0.00 0.00 0.00 65 1022.2
20260506195512 66 190 0.9 1.7 0.00 0.00 0.00 66 1022.3
20260506195008 65 185 0.0 0.9 0.00 0.00 0.00 67 1022.5
20260506194506 64 186 0.9 0.9 0.00 0.00 0.00 68 1022.4
20260506194002 64 192 0.0 0.9 0.00 0.00 0.00 69 1022.5
20260506193500 64 195 0.0 0.9 0.00 0.00 0.00 69 1022.5
20260506192956 64 195 0.0 0.9 0.00 0.00 0.00 69 1022.6
20260506192453 63 218 0.9 0.9 0.00 0.00 0.00 70 1022.4
20260506191949 63 218 0.0 0.9 0.00 0.00 0.00 70 1022.5
20260506191446 64 218 0.0 0.9 0.00 0.00 0.00 69 1022.3
20260506190942 63 218 0.0 0.9 0.00 0.00 0.00 69 1022.4
20260506190440 64 215 0.0 0.9 0.00 0.00 0.00 70 1022.3
20260506185936 63 216 0.9 0.9 0.00 0.00 0.00 71 1022.5
20260506185433 63 216 0.0 0.9 0.00 0.00 0.00 71 1022.6
20260506184930 63 217 0.0 1.7 0.00 0.00 0.00 71 1022.2
20260506184427 63 212 0.0 0.9 0.00 0.00 0.00 70 1022.5
20260506183925 63 211 0.9 0.9 0.00 0.00 0.00 70 1022.2
20260506183420 63 208 0.9 0.9 0.00 0.00 0.00 71 1022.3
20260506182918 63 208 0.0 0.9 0.00 0.00 0.00 71 1022.3
20260506182415 62 209 0.9 0.9 0.00 0.00 0.00 72 1022.4
20260506181912 62 209 0.0 0.9 0.00 0.00 0.00 73 1022.4
20260506181410 62 209 0.0 0.9 0.00 0.00 0.00 72 1022.2
20260506180906 62 209 0.9 0.9 0.00 0.00 0.00 72 1022.3
20260506180402 61 210 0.0 0.9 0.00 0.00 0.00 73 1022.3
20260506175859 61 209 0.0 0.9 0.00 0.00 0.00 74 1022.4
20260506175356 60 210 0.0 0.0 0.00 0.00 0.00 76 1022.6
20260506174853 60 210 0.0 0.0 0.00 0.00 0.00 76 1022.3
20260506174350 60 210 1.7 2.6 0.00 0.00 0.00 76 1022.5
20260506173848 60 175 0.9 0.9 0.00 0.00 0.00 76 1022.4
20260506173344 60 175 0.0 0.9 0.00 0.00 0.00 76 1022.2
20260506172841 60 172 0.0 0.0 0.00 0.00 0.00 77 1022.0
20260506172338 60 172 0.0 0.0 0.00 0.00 0.00 77 1022.4
20260506171836 59 142 0.9 0.9 0.00 0.00 0.00 78 1022.0
20260506171333 59 139 0.0 0.0 0.00 0.00 0.00 79 1022.1
20260506170830 59 138 0.0 0.9 0.00 0.00 0.00 79 1022.1
20260506170326 59 138 0.0 0.9 0.00 0.00 0.00 80 1022.2
20260506165826 59 14 0.9 0.9 0.00 0.00 0.00 80 1022.3
20260506165323 58 14 0.0 0.0 0.00 0.00 0.00 80 1022.4
20260506164819 58 14 0.0 0.0 0.00 0.00 0.00 81 1022.3
20260506164316 58 13 0.0 0.9 0.00 0.00 0.00 81 1022.1
20260506163813 57 14 0.0 0.0 0.00 0.00 0.00 82 1022.2
20260506163308 57 15 0.0 0.9 0.00 0.00 0.00 82 1022.3
20260506162803 57 17 0.9 0.9 0.00 0.00 0.00 82 1022.0
20260506162302 57 17 0.0 0.0 0.00 0.00 0.00 82 1022.0
20260506161759 57 17 0.0 0.9 0.00 0.00 0.00 82 1022.1
20260506161256 57 17 0.9 0.9 0.00 0.00 0.00 83 1021.8
20260506160753 57 16 0.9 0.9 0.00 0.00 0.00 82 1021.9
20260506160250 57 16 0.0 0.9 0.00 0.00 0.00 83 1021.8
20260506155749 57 21 2.6 3.5 0.00 0.00 0.00 82 1021.7
20260506155245 57 266 2.6 2.6 0.00 0.00 0.00 82 1021.6
20260506153352 56 7 0.0 0.9 0.00 0.00 0.00 84 1021.7
20260506152849 56 7 0.9 1.7 0.00 0.00 0.00 83 1021.9
20260506152346 56 7 0.9 0.9 0.00 0.00 0.00 83 1022.2
20260506151845 56 7 0.0 0.9 0.00 0.00 0.00 84 1022.1
20260506151341 57 6 0.9 1.7 0.00 0.00 0.00 83 1022.4
20260506150839 57 8 0.9 0.9 0.00 0.00 0.00 83 1022.2
20260506150335 57 9 0.9 0.9 0.00 0.00 0.00 83 1022.0
20260506145832 57 9 1.7 2.6 0.00 0.00 0.00 83 1022.1
20260506145328 57 14 0.0 1.7 0.00 0.00 0.00 82 1022.0
20260506144826 57 14 0.0 0.9 0.00 0.00 0.00 83 1021.9
20260506144322 57 14 0.9 0.9 0.00 0.00 0.00 83 1022.0
20260506143821 57 15 0.9 0.9 0.00 0.00 0.00 83 1022.0
20260506143317 57 15 0.9 0.9 0.00 0.00 0.00 83 1021.7
20260506142816 57 15 0.9 1.7 0.00 0.00 0.00 83 1021.6
20260506142313 57 20 2.6 2.6 0.00 0.00 0.00 82 1021.4
20260506141811 57 15 0.9 1.7 0.00 0.00 0.00 83 1021.2
20260506141309 57 13 0.9 1.7 0.00 0.00 0.00 83 1021.1
20260506140807 57 13 1.7 2.6 0.00 0.00 0.00 83 1021.0
20260506140303 56 15 1.7 1.7 0.00 0.00 0.00 84 1021.3
20260506135801 56 15 0.9 0.9 0.00 0.00 0.00 84 1021.2
20260506135256 56 15 0.9 0.9 0.00 0.00 0.00 84 1021.4
20260506134754 56 15 0.9 0.9 0.00 0.00 0.00 84 1021.2
20260506134250 56 15 0.9 0.9 0.00 0.00 0.00 84 1021.0
20260506133747 56 15 0.0 0.0 0.00 0.00 0.00 84 1021.3
20260506133244 56 15 0.0 0.0 0.00 0.00 0.00 84 1020.9
20260506132740 56 15 0.9 0.9 0.00 0.00 0.00 84 1021.1
20260506132238 56 15 0.0 0.0 0.00 0.00 0.00 84 1021.0
20260506131736 56 15 0.0 0.0 0.00 0.00 0.00 84 1020.8
20260506131231 56 15 0.0 0.9 0.00 0.00 0.00 84 1021.0
20260506130728 56 15 0.0 0.9 0.00 0.00 0.00 84 1020.8
20260506130225 56 15 0.9 1.7 0.00 0.00 0.00 84 1020.7
20260506125724 56 15 0.9 0.9 0.00 0.00 0.00 84 1020.7
20260506125221 56 15 0.0 0.0 0.00 0.00 0.00 84 1020.7
20260506124719 56 15 0.0 0.0 0.00 0.00 0.00 84 1020.6
20260506124217 56 15 0.0 0.0 0.00 0.00 0.00 83 1020.6
20260506123714 56 15 0.0 0.0 0.00 0.00 0.00 83 1020.6
20260506123213 56 15 0.0 2.6 0.00 0.00 0.00 83 1020.6
20260506122709 56 20 0.9 0.9 0.00 0.00 0.00 83 1020.8
20260506122206 56 21 0.0 0.0 0.00 0.00 0.00 83 1020.8
20260506121704 57 22 0.9 1.7 0.00 0.00 0.00 83 1020.8
20260506121200 57 32 0.9 0.9 0.00 0.00 0.00 83 1020.5